Temp
60 60 61 60 61 61 62 62 61 61 62 62 59 59 58 57 56 55 54 52 51 51
57 59 60 62 61 61 62 62 61 60 60 60 59 58 58 57 56 56 55 53 52 54
56 56 56 58 58 58 57 59 59 57 56 57 59 58 58 57 57 56 54 55 54 54
55 55 55 55 55 55 55 56 56 56 56 57 58 58 57 56 57 56 56 54 54 53
55 55 54 55 54 55 54 54 54 55 56 56 56 57 57 55 56 56 54 55 53 53
54 55 54 54 54 55 54 53 53 54 53 55 55 56 56 56 55 55 55 55 53 55
48 50 54 55 55 55 54 53 53 53 54 53 53 53 53 53 53 52 52 52 53 53
45 47 49 53 54 55 54 54 54 53 52 52 52 52 51 51 51 50 49 49 49 50
43 44 45 47 49 53 53 53 53 52 53 52 52 50 50 50 49 49 48 48 47 48
41 42 42 44 44 45 48 51 52 52 51 51 51 50 50 49 50 49 48 48 47 46
39 40 41 42 42 42 44 46 48 50 50 50 50 49 49 49 48 47 47 47 47 47
38 38 39 39 40 41 42 43 44 46 47 48 48 47 48 48 47 46 45 45 45 45
37 38 37 38 38 40 41 41 43 43 44 45 46 48 48 47 45 43 42 42 42 45
35 36 36 36 38 38 39 38 40 41 42 43 44 45 47 47 44 42 40 40 40 42
MSLP
1011.91 1012.10 1012.30 1012.65 1013.00 1013.56 1014.13 1014.58 1015.29 1015.71 1016.23 1016.73 1017.44 1017.88 1018.68 1019.53 1020.21 1020.76 1021.49 1021.93 1022.23 1022.58
1011.71 1011.63 1011.73 1011.77 1012.12 1012.64 1013.07 1013.86 1014.55 1015.17 1015.97 1016.57 1016.90 1017.46 1017.98 1018.88 1019.66 1020.21 1020.71 1021.35 1021.67 1022.10
1011.55 1011.59 1011.40 1011.47 1011.77 1012.28 1012.77 1013.43 1014.06 1014.91 1015.88 1016.45 1016.90 1017.33 1017.84 1018.41 1019.13 1019.72 1020.30 1020.69 1021.23 1021.64
1011.62 1011.73 1011.57 1011.55 1012.09 1012.59 1012.86 1013.49 1014.05 1014.61 1015.24 1016.07 1016.30 1016.98 1017.57 1018.07 1018.70 1019.19 1019.61 1020.17 1020.59 1021.08
1011.60 1011.82 1011.93 1011.66 1012.01 1012.68 1013.17 1013.60 1014.31 1014.76 1014.73 1015.53 1015.86 1016.50 1016.97 1017.54 1018.06 1018.51 1019.05 1019.47 1020.07 1020.45
1011.91 1012.02 1012.04 1012.17 1012.46 1012.18 1012.80 1013.53 1014.11 1014.68 1014.97 1015.15 1015.07 1015.76 1016.43 1016.97 1017.47 1018.03 1018.35 1018.85 1019.44 1019.79
1013.21 1012.79 1012.20 1012.16 1012.35 1012.75 1012.93 1012.94 1013.47 1014.36 1014.82 1014.69 1015.18 1015.68 1016.27 1016.44 1016.88 1017.52 1018.09 1018.28 1018.85 1019.45
1014.35 1013.91 1013.06 1012.51 1012.57 1012.80 1013.06 1013.25 1013.29 1013.84 1014.52 1014.71 1015.30 1015.72 1016.14 1016.29 1016.77 1017.18 1017.68 1018.27 1018.55 1018.89
1015.29 1014.58 1014.50 1013.59 1013.20 1012.94 1013.15 1013.32 1013.38 1013.79 1014.36 1014.82 1015.12 1015.44 1015.84 1016.47 1016.63 1017.09 1017.36 1018.12 1018.58 1018.94
1015.99 1015.74 1015.49 1015.05 1014.57 1014.16 1013.94 1013.48 1013.62 1013.90 1014.47 1015.01 1015.28 1015.30 1015.54 1016.08 1016.55 1016.80 1017.51 1017.81 1018.15 1018.72
1017.38 1016.99 1016.77 1016.04 1015.51 1015.26 1015.15 1014.78 1014.47 1014.34 1014.60 1014.87 1015.07 1015.35 1015.56 1015.97 1016.43 1016.88 1017.16 1017.45 1017.87 1018.44
1018.54 1017.94 1017.52 1017.04 1016.79 1016.72 1016.36 1015.89 1015.59 1015.37 1015.33 1015.25 1015.44 1015.56 1015.75 1016.16 1016.54 1016.85 1017.18 1017.55 1017.83 1018.23
1019.62 1019.12 1018.85 1018.36 1017.73 1017.52 1017.35 1016.86 1016.39 1016.13 1016.08 1016.05 1015.97 1015.99 1015.97 1016.20 1016.37 1016.90 1017.24 1017.49 1017.75 1018.31
1020.37 1019.83 1019.50 1019.09 1018.64 1018.31 1017.84 1017.41 1016.86 1016.60 1016.55 1016.57 1016.44 1016.39 1016.20 1016.38 1016.59 1016.60 1017.30 1017.73 1017.92 1017.94
Wind_Speed
8 9 11 14 12 11 12 13 14 14 14 15 12 12 12 10 10 11 10 10 6 4
2 7 11 15 15 13 13 11 13 12 11 11 12 13 14 10 11 11 10 10 8 6
2 3 3 8 11 12 9 11 14 13 12 11 11 12 12 10 10 11 8 7 10 8
4 3 5 6 5 7 8 8 12 16 16 12 12 11 11 10 11 12 11 8 10 10
4 3 3 8 10 8 6 5 3 7 10 13 12 12 13 11 11 13 12 13 10 10
3 3 4 5 5 11 12 8 7 8 8 11 10 12 12 12 11 11 12 11 11 11
12 10 3 4 6 7 7 9 10 8 9 7 6 6 8 10 9 9 9 9 10 9
13 12 12 3 3 5 5 5 7 7 4 4 4 4 5 7 7 7 6 5 6 7
13 14 13 13 12 2 4 5 5 6 8 8 6 11 12 7 4 5 7 6 3 3
15 14 14 12 12 13 10 3 4 5 6 5 5 10 11 12 6 8 8 7 7 5
13 13 12 12 12 12 10 10 7 3 3 3 2 7 10 10 4 4 5 6 7 9
13 13 13 13 12 9 8 7 6 4 6 4 2 4 6 7 6 5 5 4 5 7
11 10 11 11 10 9 7 5 5 5 5 7 5 6 1 6 3 4 3 4 4 10
10 9 10 9 8 9 8 7 7 7 6 6 6 5 6 6 3 4 3 3 3 3
Wind_Direction
204 201 201 199 196 191 193 189 188 189 188 187 180 171 175 178 184 180 191 191 184 185
208 231 220 211 198 195 189 184 181 180 184 190 180 177 173 180 188 187 186 194 187 191
182 201 185 196 192 180 168 184 173 177 187 193 185 182 180 184 188 187 188 190 191 197
179 182 143 117 135 164 154 159 180 179 185 196 183 183 183 186 186 194 193 190 193 198
145 181 174 147 134 126 123 130 145 189 180 180 184 186 188 187 190 194 191 197 186 196
42 175 174 159 158 155 155 152 172 191 198 196 183 183 193 191 188 197 198 193 195 200
17 12 226 180 170 188 184 169 159 173 191 174 160 180 192 185 183 187 194 186 195 195
15 12 18 34 150 160 173 195 191 178 179 145 172 171 176 163 167 169 175 195 192 192
19 23 16 28 23 59 164 160 149 157 185 194 198 194 187 181 169 171 164 180 172 181
18 20 18 18 28 28 14 50 143 143 153 170 190 187 196 194 194 180 197 194 183 176
10 17 12 16 22 22 11 22 18 63 136 151 172 177 189 184 158 178 185 187 185 191
6 6 8 15 15 12 3 13 21 23 21 51 58 160 168 168 169 174 180 179 177 183
10 12 7 1 4 4 0 1 10 29 26 25 19 8 166 172 148 165 163 169 172 196
5 7 6 359 359 353 356 357 19 28 26 21 21 2 358 203 174 156 157 182 177 165